Showing default

YAOGAN 16B, 39012

Orbit data source: Space-Track

YAOGAN 16B, 39012 is a payload satellite owned by PLA GAD (CN) in LEO that was launched on Sun, 25 Nov 2012 UTC via a CHANG ZHENG 4C launch vehicle from the Jiuquan Satellite Launch Center, China (JSC). Payload-class satellites include a variety of spacecraft equipped with specific instruments for various scientific and technological missions. These include communications satellites like Starlink; space stations such as the ISS; scientific satellites like the Hubble; Earth observation satellites from companies like Planet Labs, Umbra, and HawkEye 360; GPS; miniature CubeSats for education and research; and military/defense satellites.

Loading next visibility...
Identifier
39012, 2012-066B
Orbit
LEO
Country
Flag of CNCN / PRC
Related business
Manufacturer
CAST
Mission
Operational Defense Radar Imaging
Bus & Motor
Unknown
Mass
~500 kg wet, ~500 kg dry
Launch date (UTC)
2012-11-25 (14 years ago)
Launch vehicle
CHANG ZHENG 4C
Launch site
Jiuquan Satellite Launch Center, China (JSC)
Object type
Payload
Rocket body
Debris
Shape & HBR
Box + 2 Pan, 0.5 m
Radar Cross Section
0.446 m², Large (>1 m²)

Expand to show TLE details & history
Last TLE update: 2 days ago

TLE from 2 days ago
0 YAOGAN 16B
1 39012U 12066B   26171.45459260 -.00000082  00000-0  83959-5 0  9992
2 39012  63.3548 281.5858 0435870  26.9011 335.3906 13.45513172666547
Epoch: 2026-06-20T10:54Z
TLE epoch observation values (Epoch: 2026-06-20T10:54:36.800Z)
Latitude
-0.00006°
Longitude
-150.73654°
Altitude
797.26 km
Speed
7.6 km/s
True Right ascension
18h 46m 20s
True Declination
0° 00' 00"
Sunlit
Object was in full shadow at epoch
Visualization orbit readout
Latitude
Unknown
Longitude
Unknown
Altitude
Unknown
Speed
Unknown
Apparent Right ascension
Unknown
Apparent Declination
Unknown
Sunlit
N/A
Visualization observer readout
Local Sidereal Time
00:39:54
Azimuth
Unknown
Elevation
Unknown
Doppler factor
Unknown
Orbital elements
Apogee altitude
1,413.055 km
Perigee altitude
762.233 km
Semi-major axis
7,465.781 km
Eccentricity
0.04359
Inclination
63.3548°
RAAN
281.5858°
Arg. of periapsis
26.9011°
True anomaly
333.20303°
Mean anomaly
335.3906°
Eccentric anomaly
334.30791°
Mean motion
3.36458 °/min
Orbital period
107 mins
BSTAR
0.0000083959
Loading maneuver chart data...
Computing Atmospheric mass density...
Loading historical data...
Loading historical data...
Loading historical data...
Loading historical data...
Loading historical data...
Loading historical data...
Loading historical data...

Documentation

Showing up to 5 results
|